• In Uzbekistan
  • List of Countries
  • For 7 days
  • Water Temperature
  • Satellite Maps
  • Weather Map
  • Weather Widgets
  • user-avatar
    Login

    Hourly Weather Lubinka

    Today, 25 September, Tuesday

    Time Temperature Precipitation Wind Pressure Humidity
    00:00 +3°C° 0 mm 5 mps 732 mmHg 79%
    01:00 +3°C° 0 mm 5 mps 732 mmHg 80%
    02:00 +3°C° 0 mm 5 mps 733 mmHg 81%
    03:00 +2°C° 0 mm 5 mps 733 mmHg 83%
    04:00 +2°C° 0 mm 5 mps 733 mmHg 84%
    05:00 +2°C° 0 mm 5 mps 734 mmHg 82%
    06:00 +3°C° 0 mm 6 mps 735 mmHg 81%
    07:00 +3°C° 0 mm 6 mps 735 mmHg 80%
    08:00 +4°C° 0 mm 6 mps 736 mmHg 72%
    09:00 +7°C° 0 mm 6 mps 736 mmHg 65%
    10:00 +8°C° 0 mm 7 mps 737 mmHg 58%
    11:00 +9°C° 0.2 mm 6 mps 737 mmHg 56%
    12:00 +9°C° 0.2 mm 6 mps 737 mmHg 53%
    13:00 +10°C° 0.2 mm 6 mps 737 mmHg 50%
    14:00 +10°C° 0.1 mm 6 mps 738 mmHg 51%
    15:00 +9°C° 0.1 mm 6 mps 738 mmHg 51%
    16:00 +9°C° 0.1 mm 5 mps 738 mmHg 52%
    17:00 +8°C° 0 mm 4 mps 738 mmHg 56%
    18:00 +6°C° 0 mm 4 mps 739 mmHg 60%
    19:00 +5°C° 0 mm 3 mps 739 mmHg 63%
    20:00 +4°C° 0 mm 3 mps 740 mmHg 66%
    21:00 +5°C° 0 mm 2 mps 740 mmHg 69%
    22:00 +4°C° 0 mm 2 mps 741 mmHg 72%
    23:00 +4°C° 0 mm 2 mps 741 mmHg 74%

    Tomorrow, 26 September, Wednesday

    Time Temperature Precipitation Wind Pressure Humidity
    00:00 +4°C° 0 mm 2 mps 741 mmHg 76%
    01:00 +3°C° 0 mm 2 mps 741 mmHg 78%
    02:00 +3°C° 0 mm 2 mps 741 mmHg 79%
    03:00 +2°C° 0 mm 2 mps 741 mmHg 81%
    04:00 +2°C° 0 mm 2 mps 741 mmHg 83%
    05:00 +3°C° 0 mm 2 mps 742 mmHg 81%
    06:00 +4°C° 0 mm 2 mps 742 mmHg 78%
    07:00 +4°C° 0 mm 2 mps 742 mmHg 76%
    08:00 +6°C° 0 mm 2 mps 742 mmHg 68%
    09:00 +9°C° 0 mm 2 mps 742 mmHg 60%
    10:00 +12°C° 0 mm 2 mps 742 mmHg 52%
    11:00 +13°C° 0 mm 2 mps 741 mmHg 48%
    12:00 +13°C° 0 mm 3 mps 741 mmHg 45%
    13:00 +13°C° 0 mm 3 mps 740 mmHg 41%
    14:00 +14°C° 0 mm 2 mps 740 mmHg 43%
    15:00 +14°C° 0 mm 2 mps 739 mmHg 45%
    16:00 +14°C° 0 mm 2 mps 739 mmHg 47%
    17:00 +13°C° 0 mm 2 mps 739 mmHg 50%
    18:00 +10°C° 0 mm 2 mps 739 mmHg 54%
    19:00 +9°C° 0 mm 2 mps 739 mmHg 57%
    20:00 +9°C° 0 mm 2 mps 739 mmHg 58%
    21:00 +9°C° 0 mm 3 mps 738 mmHg 58%
    22:00 +9°C° 0 mm 3 mps 738 mmHg 59%
    23:00 +8°C° 0 mm 3 mps 738 mmHg 58%

    Day after tomorrow, 27 September, Thursday

    Time Temperature Precipitation Wind Pressure Humidity
    00:00 +8°C° 0 mm 3 mps 738 mmHg 58%
    01:00 +8°C° 0 mm 3 mps 737 mmHg 57%
    02:00 +8°C° 0 mm 3 mps 737 mmHg 57%
    03:00 +7°C° 0 mm 3 mps 736 mmHg 56%
    04:00 +7°C° 0 mm 3 mps 736 mmHg 55%
    05:00 +7°C° 0 mm 4 mps 736 mmHg 53%
    06:00 +7°C° 0 mm 4 mps 736 mmHg 51%
    07:00 +8°C° 0 mm 4 mps 736 mmHg 49%
    08:00 +11°C° 0 mm 4 mps 736 mmHg 47%
    09:00 +12°C° 0 mm 4 mps 736 mmHg 45%
    10:00 +14°C° 0 mm 4 mps 736 mmHg 43%
    11:00 +17°C° 0 mm 4 mps 736 mmHg 44%
    12:00 +18°C° 0 mm 4 mps 736 mmHg 45%
    13:00 +19°C° 0 mm 5 mps 736 mmHg 47%
    14:00 +19°C° 0 mm 4 mps 735 mmHg 50%
    15:00 +19°C° 0 mm 4 mps 735 mmHg 54%
    16:00 +19°C° 0 mm 3 mps 735 mmHg 57%
    17:00 +17°C° 0 mm 3 mps 734 mmHg 62%
    18:00 +15°C° 0 mm 2 mps 734 mmHg 68%
    19:00 +13°C° 0 mm 2 mps 734 mmHg 73%
    20:00 +13°C° 0 mm 2 mps 734 mmHg 75%
    21:00 +12°C° 0 mm 2 mps 734 mmHg 76%
    22:00 +12°C° 0 mm 2 mps 734 mmHg 77%
    23:00 +12°C° 0 mm 2 mps 734 mmHg 78%

    28 September, Friday

    Time Temperature Precipitation Wind Pressure Humidity
    00:00 +10°C° 0 mm 2 mps 733 mmHg 78%
    01:00 +10°C° 0 mm 2 mps 733 mmHg 78%
    02:00 +10°C° 0 mm 2 mps 733 mmHg 79%
    03:00 +10°C° 0 mm 2 mps 732 mmHg 79%
    04:00 +10°C° 0 mm 2 mps 732 mmHg 79%
    05:00 +10°C° 0 mm 2 mps 731 mmHg 77%
    06:00 +12°C° 0 mm 2 mps 731 mmHg 75%
    07:00 +13°C° 0 mm 2 mps 731 mmHg 72%
    08:00 +15°C° 0 mm 2 mps 731 mmHg 65%
    09:00 +17°C° 0 mm 3 mps 731 mmHg 58%
    10:00 +20°C° 0 mm 3 mps 731 mmHg 51%
    11:00 +21°C° 0 mm 3 mps 731 mmHg 49%
    12:00 +21°C° 0 mm 3 mps 731 mmHg 47%
    13:00 +22°C° 0 mm 3 mps 730 mmHg 45%
    14:00 +22°C° 0 mm 3 mps 730 mmHg 47%
    15:00 +21°C° 0 mm 2 mps 730 mmHg 50%
    16:00 +20°C° 0 mm 2 mps 729 mmHg 52%
    17:00 +18°C° 0 mm 2 mps 729 mmHg 57%
    18:00 +16°C° 0 mm 2 mps 729 mmHg 62%
    19:00 +14°C° 0 mm 1 mps 729 mmHg 68%
    20:00 +13°C° 0 mm 1 mps 729 mmHg 72%
    21:00 +13°C° 0 mm 1 mps 729 mmHg 76%
    22:00 +12°C° 0 mm 1 mps 729 mmHg 81%
    23:00 +12°C° 0 mm 1 mps 729 mmHg 82%

    29 September, Saturday

    Time Temperature Precipitation Wind Pressure Humidity
    00:00 +11°C° 0 mm 1 mps 728 mmHg 84%
    01:00 +11°C° 0 mm 1 mps 728 mmHg 86%
    02:00 +11°C° 0.1 mm 1 mps 728 mmHg 87%
    03:00 +11°C° 0.1 mm 1 mps 728 mmHg 88%
    04:00 +11°C° 0.1 mm 1 mps 728 mmHg 90%
    05:00 +10°C° 0.6 mm 2 mps 729 mmHg 90%
    06:00 +10°C° 0.6 mm 3 mps 729 mmHg 91%
    07:00 +10°C° 0.6 mm 3 mps 729 mmHg 91%
    08:00 +10°C° 0.8 mm 3 mps 730 mmHg 90%
    09:00 +9°C° 0.8 mm 3 mps 730 mmHg 89%
    10:00 +9°C° 0.8 mm 3 mps 731 mmHg 88%
    11:00 +10°C° 0.1 mm 3 mps 731 mmHg 83%
    12:00 +12°C° 0.1 mm 2 mps 731 mmHg 77%
    13:00 +12°C° 0.1 mm 2 mps 731 mmHg 71%
    14:00 +12°C° 0 mm 2 mps 731 mmHg 69%
    15:00 +13°C° 0 mm 2 mps 731 mmHg 67%
    16:00 +13°C° 0 mm 2 mps 731 mmHg 65%
    17:00 +10°C° 0 mm 2 mps 731 mmHg 68%
    18:00 +9°C° 0 mm 2 mps 732 mmHg 72%
    19:00 +9°C° 0 mm 1 mps 732 mmHg 76%
    20:00 +8°C° 0 mm 1 mps 732 mmHg 77%
    21:00 +7°C° 0 mm 1 mps 732 mmHg 77%
    22:00 +7°C° 0 mm 1 mps 732 mmHg 78%
    23:00 +7°C° 0 mm 1 mps 732 mmHg 79%

    30 September, Sunday

    Time Temperature Precipitation Wind Pressure Humidity
    00:00 +6°C° 0 mm 1 mps 732 mmHg 80%
    01:00 +6°C° 0 mm 1 mps 732 mmHg 81%
    02:00 +5°C° 0 mm 1 mps 731 mmHg 83%
    03:00 +5°C° 0 mm 1 mps 731 mmHg 84%
    04:00 +5°C° 0 mm 1 mps 731 mmHg 86%
    05:00 +5°C° 0 mm 1 mps 731 mmHg 84%
    06:00 +6°C° 0 mm 1 mps 731 mmHg 82%
    07:00 +7°C° 0 mm 1 mps 731 mmHg 79%
    08:00 +9°C° 0 mm 1 mps 731 mmHg 72%
    09:00 +11°C° 0 mm 1 mps 730 mmHg 64%
    10:00 +13°C° 0 mm 2 mps 730 mmHg 56%
    11:00 +14°C° 0 mm 2 mps 730 mmHg 53%
    12:00 +15°C° 0 mm 1 mps 729 mmHg 49%
    13:00 +16°C° 0 mm 1 mps 728 mmHg 45%
    14:00 +15°C° 0 mm 1 mps 728 mmHg 48%
    15:00 +15°C° 0 mm 1 mps 728 mmHg 51%
    16:00 +15°C° 0 mm 1 mps 727 mmHg 53%
    17:00 +13°C° 0 mm 1 mps 727 mmHg 59%
    18:00 +11°C° 0 mm 1 mps 727 mmHg 64%
    19:00 +9°C° 0 mm 1 mps 727 mmHg 70%
    20:00 +9°C° 0 mm 1 mps 727 mmHg 71%
    21:00 +9°C° 0 mm 1 mps 727 mmHg 73%
    22:00 +8°C° 0 mm 1 mps 727 mmHg 74%
    23:00 +7°C° 0 mm 2 mps 727 mmHg 75%
    Show more